User: anonymous
Location: Unspecified
(0.0000°N, 0.0000°E)
Time: 21:09:40
(UTC+02:00)
Language:

ARIANE DEB (SPELDA) - Orbit

View from above orbital plane
View from above orbital plane
View from above satellite
View from above satellite

Ground track
Ground track

The orbit data is extracted from the following two-line orbital elements,

1 27402U 02015D   14231.61869534  .00000873  00000-0  11675-2 0   548
2 27402 003.4012 226.7166 7108587 117.1080 009.5778 02.45609060108479
Epoch (UTC): 19 August 2014 14:50:55
Eccentricity: 0.7108587
inclination: 3.4012°
perigee height: 331 km
apogee height: 33321 km
right ascension of ascending node: 226.7166°
argument of perigee: 117.1080°
revolutions per day: 2.45609060
mean anomaly at epoch: 9.5778°
orbit number at epoch: 10847

The dashed part of the orbit path shows where the satellite is in the earth's shadow,  

DLR